Terminal Aerodrome Forecast
Issued by NWS Dodge City, KS

Home | Current Version | Previous Version | Graphics & Text | Print | Product List | Glossary Off
Versions: 1 2 3 4 5 6 7 8 9 10 11 12 13 14

000
FTUS43 KDDC 131700
TAFDDC
TAF
KDDC 131721Z 1318/1418 36025G35KT P6SM OVC010
      TEMPO 1320/1324 3SM -RA OVC007
     FM140500 36015G25KT 2SM -SN OVC007=

USA.gov is the U.S. government's official web portal to all federal, state and local government web resources and services.